N636CX KLAX-KCMA

Flight info

Callsign N636CX
Flight time 0h 15m
Altitude 4000
Route SMO GINNA
Aircraft S97/L-VGD/C

Departure

Time 2026-04-20 00:22
Airport Los Angeles International Airport (KLAX)

Arrival

Time 2026-04-20 00:37
Airport Camarillo International Airport (KCMA)
Time Latitude Longitude Altitude Speed Heading
2026-04-20 00:06 33.93300 -118.40297 120 ft 0 kts 173°
2026-04-20 00:14 33.93298 -118.40296 122 ft 1 kts 167°
2026-04-20 00:15 33.93333 -118.40237 155 ft 18 kts 51°
2026-04-20 00:15 33.93406 -118.40068 203 ft 32 kts 58°
2026-04-20 00:15 33.93479 -118.39617 242 ft 72 kts 83°
2026-04-20 00:15 33.93538 -118.38996 209 ft 74 kts 85°
2026-04-20 00:16 33.93583 -118.38554 122 ft 29 kts 86°
2026-04-20 00:16 33.93597 -118.38409 100 ft 19 kts 82°
2026-04-20 00:16 33.93612 -118.38314 99 ft 9 kts 60°
2026-04-20 00:16 33.93620 -118.38300 99 ft 0 kts 46°
2026-04-20 00:17 33.93636 -118.38285 99 ft 8 kts 23°
2026-04-20 00:17 33.93649 -118.38281 99 ft 2 kts 353°
2026-04-20 00:18 33.93651 -118.38281 99 ft 0 kts 353°
2026-04-20 00:21 33.93702 -118.38299 99 ft 26 kts 316°
2026-04-20 00:21 33.93690 -118.38727 102 ft 101 kts 263°
2026-04-20 00:21 33.93578 -118.39861 144 ft 157 kts 262°
2026-04-20 00:21 33.93430 -118.41281 271 ft 188 kts 261°
2026-04-20 00:22 33.93248 -118.42921 567 ft 206 kts 260°
2026-04-20 00:22 33.93015 -118.44667 932 ft 215 kts 264°
2026-04-20 00:22 33.92874 -118.46493 1305 ft 219 kts 263°
2026-04-20 00:22 33.92733 -118.48309 1666 ft 222 kts 263°
2026-04-20 00:23 33.92589 -118.50176 2036 ft 222 kts 263°
2026-04-20 00:23 33.92439 -118.52025 2400 ft 222 kts 263°
2026-04-20 00:23 33.92283 -118.53879 2767 ft 223 kts 263°
2026-04-20 00:23 33.92124 -118.55758 3136 ft 224 kts 263°
2026-04-20 00:24 33.91978 -118.57618 3495 ft 225 kts 263°
2026-04-20 00:24 33.91828 -118.59514 3858 ft 226 kts 263°
2026-04-20 00:24 33.91685 -118.61401 4230 ft 226 kts 263°
2026-04-20 00:24 33.91542 -118.63285 4605 ft 226 kts 263°
2026-04-20 00:25 33.91664 -118.65128 4944 ft 226 kts 292°
2026-04-20 00:25 33.92748 -118.66435 5274 ft 219 kts 337°
2026-04-20 00:25 33.94220 -118.66585 5628 ft 212 kts 11°
2026-04-20 00:25 33.95703 -118.66314 5928 ft 220 kts 11°
2026-04-20 00:26 33.97254 -118.66012 6016 ft 233 kts 11°
2026-04-20 00:26 33.98898 -118.65691 6005 ft 243 kts 11°
2026-04-20 00:26 34.00590 -118.65368 6001 ft 248 kts 11°
2026-04-20 00:26 34.02303 -118.65038 5998 ft 250 kts 10°
2026-04-20 00:27 34.04026 -118.64704 5996 ft 251 kts 10°
2026-04-20 00:27 34.05765 -118.64365 5989 ft 251 kts 11°
2026-04-20 00:27 34.07495 -118.64032 5997 ft 250 kts 11°
2026-04-20 00:27 34.09224 -118.63690 6017 ft 250 kts 11°
2026-04-20 00:28 34.10950 -118.63348 6013 ft 250 kts 11°
2026-04-20 00:28 34.12650 -118.63017 6016 ft 250 kts 10°
2026-04-20 00:28 34.14382 -118.62680 6008 ft 249 kts 11°
2026-04-20 00:28 34.16096 -118.62338 6011 ft 249 kts 11°
2026-04-20 00:29 34.17813 -118.62008 6015 ft 250 kts 11°
2026-04-20 00:29 34.19528 -118.61682 6011 ft 250 kts 11°
2026-04-20 00:29 34.21249 -118.61348 6013 ft 249 kts 11°
2026-04-20 00:29 34.22974 -118.61011 6010 ft 249 kts 11°
2026-04-20 00:30 34.24700 -118.60770 6011 ft 250 kts 355°
2026-04-20 00:30 34.26189 -118.61713 6042 ft 248 kts 310°
2026-04-20 00:30 34.26844 -118.63583 6044 ft 245 kts 270°
2026-04-20 00:30 34.26410 -118.65509 6042 ft 240 kts 237°
2026-04-20 00:31 34.25623 -118.67323 6023 ft 244 kts 241°
2026-04-20 00:31 34.24862 -118.69166 6017 ft 245 kts 241°
2026-04-20 00:31 34.24106 -118.71002 6032 ft 246 kts 241°
2026-04-20 00:31 34.23337 -118.72873 6017 ft 248 kts 241°
2026-04-20 00:32 34.22568 -118.74747 6012 ft 248 kts 241°
2026-04-20 00:32 34.21800 -118.76620 6014 ft 249 kts 241°
2026-04-20 00:32 34.21020 -118.78484 6011 ft 249 kts 241°
2026-04-20 00:32 34.20574 -118.80494 5998 ft 249 kts 271°
2026-04-20 00:33 34.20660 -118.82587 6059 ft 252 kts 270°
2026-04-20 00:33 34.20748 -118.84691 6047 ft 253 kts 271°
2026-04-20 00:33 34.20833 -118.86811 6026 ft 253 kts 271°
2026-04-20 00:33 34.20921 -118.88933 6030 ft 253 kts 271°
2026-04-20 00:34 34.21008 -118.91067 6027 ft 252 kts 271°
2026-04-20 00:34 34.21098 -118.93178 6025 ft 252 kts 271°
2026-04-20 00:34 34.21188 -118.95277 6019 ft 253 kts 271°
2026-04-20 00:34 34.21259 -118.97307 5802 ft 183 kts 269°
2026-04-20 00:35 34.21257 -118.98913 4785 ft 238 kts 268°
2026-04-20 00:35 34.21204 -119.01090 3647 ft 278 kts 267°
2026-04-20 00:35 34.21095 -119.03103 2551 ft 173 kts 261°
2026-04-20 00:35 34.21025 -119.04117 1970 ft 102 kts 268°
2026-04-20 00:36 34.20992 -119.05022 1671 ft 115 kts 265°
2026-04-20 00:36 34.20817 -119.05984 1326 ft 115 kts 257°
2026-04-20 00:36 34.20622 -119.06902 992 ft 98 kts 255°
2026-04-20 00:36 34.20601 -119.07500 859 ft 65 kts 276°
2026-04-20 00:37 34.20685 -119.08061 685 ft 64 kts 289°
2026-04-20 00:37 34.20976 -119.08369 596 ft 58 kts 333°
2026-04-20 00:37 34.21284 -119.08174 507 ft 51 kts 108°
2026-04-20 00:37 34.21115 -119.07893 144 ft 28 kts 152°